TimeEET,TemperatureF,Dew PointF,Humidity,Sea Level PressureIn,VisibilityMPH,Wind Direction,Wind SpeedMPH,Gust SpeedMPH,PrecipitationIn,Events,Conditions,WindDirDegrees,DateUTC
12:00 AM,87.8,37.4,17,29.86,-9999.0,NNE,4.6,-,N/A,,Clear,20,2013-06-07 22:00:00
1:00 AM,86.0,33.8,15,29.83,-9999.0,NNE,3.5,-,N/A,,Clear,20,2013-06-07 23:00:00
2:00 AM,83,33,9,29.83,6,NNW,4.6,,,,,330,2013-06-08 00:00:00
2:00 AM,84.2,24.8,11,29.83,-9999.0,NNW,4.6,-,N/A,,Clear,330,2013-06-08 00:00:00
3:00 AM,82.4,28.4,14,29.80,-9999.0,North,5.8,-,N/A,,Clear,360,2013-06-08 01:00:00
4:00 AM,82.4,28.4,14,29.80,-9999.0,North,6.9,-,N/A,,Clear,360,2013-06-08 02:00:00
5:00 AM,80.6,35.6,20,29.86,-9999.0,NNW,5.8,-,N/A,,Clear,340,2013-06-08 03:00:00
6:00 AM,82.4,35.6,19,29.86,-9999.0,North,6.9,-,N/A,,Clear,360,2013-06-08 04:00:00
7:00 AM,86.0,37.4,18,29.86,-9999.0,North,5.8,-,N/A,,Clear,350,2013-06-08 05:00:00
8:00 AM,91,36,7,29.84,6,North,11.5,,,,,0,2013-06-08 06:00:00
8:00 AM,91.4,35.6,14,29.86,-9999.0,North,11.5,-,N/A,,Clear,360,2013-06-08 06:00:00
9:00 AM,96.8,37.4,13,29.86,-9999.0,NNE,12.7,-,N/A,,Clear,30,2013-06-08 07:00:00
9:07 AM,96.8,37.4,13,29.86,-9999.0,NNE,12.7,-,N/A,,Clear,30,2013-06-08 07:07:00
10:00 AM,98.6,39.2,13,29.86,-9999.0,NNE,15.0,-,N/A,,Clear,20,2013-06-08 08:00:00
11:00 AM,100.4,42.8,14,29.86,-9999.0,North,10.4,-,N/A,,Clear,10,2013-06-08 09:00:00
12:00 PM,104.0,41.0,12,29.83,-9999.0,North,9.2,-,N/A,,Clear,10,2013-06-08 10:00:00
1:00 PM,107.6,41.0,10,29.80,-9999.0,North,10.4,-,N/A,,Clear,10,2013-06-08 11:00:00
2:00 PM,108,41,5,29.71,6,North,8.1,,,,,0,2013-06-08 12:00:00
2:00 PM,109.4,41.0,10,29.77,-9999.0,North,8.1,-,N/A,,Clear,360,2013-06-08 12:00:00
3:00 PM,109.4,39.2,9,29.74,-9999.0,NNE,6.9,-,N/A,,Clear,30,2013-06-08 13:00:00
4:00 PM,111.2,37.4,8,29.74,-9999.0,NNE,12.7,-,N/A,,Clear,30,2013-06-08 14:00:00
5:00 PM,109.4,37.4,9,29.71,-9999.0,NNE,13.8,-,N/A,,Clear,20,2013-06-08 15:00:00
6:00 PM,105.8,37.4,10,29.74,-9999.0,North,10.4,-,N/A,,Clear,10,2013-06-08 16:00:00
7:00 PM,104.0,37.4,10,29.74,-9999.0,NNE,9.2,-,N/A,,Clear,30,2013-06-08 17:00:00
8:00 PM,92,42,10,29.81,6,NNW,13.8,,,,,340,2013-06-08 18:00:00
8:00 PM,100.4,37.4,11,29.77,-9999.0,NNE,6.9,-,N/A,,Clear,30,2013-06-08 18:00:00
9:00 PM,98.6,37.4,12,29.77,-9999.0,NE,5.8,-,N/A,,Clear,40,2013-06-08 19:00:00
10:00 PM,95.0,37.4,13,29.80,-9999.0,NNE,4.6,-,N/A,,Clear,20,2013-06-08 20:00:00
11:00 PM,93.2,35.6,13,29.80,-9999.0,NNE,4.6,-,N/A,,Clear,20,2013-06-08 21:00:00